RH
71 71 71 74 76 73 72 74 76 76 75 76 75 77 78 81 80 24 12 19 25 63 48 9 7 6 8 7 8 7 6 4 6 12 20 21 26 30 31 34 41 38 20 36 58
74 70 67 69 73 70 74 75 76 76 76 76 77 78 79 84 42 18 24 57 64 55 9 6 6 6 6 7 7 7 8 5 7 12 18 22 22 31 32 38 48 46 42 42 45
67 66 67 67 69 72 73 75 76 76 78 78 78 79 81 71 25 4 65 68 65 48 10 8 8 6 7 7 7 7 8 6 8 12 17 25 30 31 31 39 40 43 41 39 38
67 66 66 67 69 71 73 78 74 74 80 81 80 79 82 44 6 10 60 64 63 15 9 9 8 7 7 9 7 8 8 8 9 15 21 27 32 40 38 44 40 39 37 38 36
63 65 66 67 69 70 72 75 74 78 80 80 83 80 50 22 7 10 46 50 14 10 8 8 8 6 8 7 8 8 9 12 11 19 24 31 36 43 47 43 40 41 42 42 39
66 66 67 68 70 71 72 76 79 81 83 82 82 82 41 15 6 15 14 14 12 10 8 8 7 6 8 9 9 8 9 16 19 27 31 36 39 38 46 41 43 43 43 42 43
68 64 66 68 70 71 73 78 82 84 86 81 81 52 37 14 11 14 13 12 9 9 8 7 8 9 8 9 10 14 17 21 22 28 33 30 39 47 41 41 44 43 42 43 44
68 64 67 70 72 76 78 84 84 85 83 82 80 46 24 15 13 13 10 11 11 10 9 8 8 10 10 9 10 12 14 16 20 28 32 29 34 40 38 43 44 42 41 42 42
62 64 67 73 75 78 82 84 82 82 82 80 50 38 18 23 16 11 10 10 10 10 10 8 9 9 10 10 10 11 12 13 23 23 29 28 34 38 36 41 43 41 40 39 39
63 64 66 71 74 76 84 82 77 77 56 42 33 39 17 12 16 15 12 12 11 12 12 11 10 10 9 8 14 13 11 11 17 21 24 29 29 41 37 37 40 36 36 36 35
63 64 63 69 72 79 65 40 36 44 42 30 20 21 12 15 17 12 11 12 12 13 14 12 11 11 9 9 9 10 11 11 11 18 23 26 32 39 35 35 36 33 33 32 32
62 62 64 67 71 76 48 44 54 58 51 32 33 33 26 23 23 14 11 12 14 13 12 15 14 8 8 7 10 11 12 12 14 22 21 24 31 34 34 34 33 31 30 30 30
64 67 68 70 72 52 49 50 39 55 66 32 36 32 26 30 21 14 12 12 15 14 13 12 9 12 10 10 11 11 12 13 18 25 22 25 36 37 34 31 30 28 28 29 28
71 73 73 77 54 42 54 41 39 65 41 17 26 27 30 23 25 13 12 12 14 14 12 13 9 12 12 11 8 11 8 11 14 27 26 27 24 41 37 36 32 31 32 32 28
73 72 67 80 56 29 40 43 53 72 65 12 25 22 24 20 14 16 12 13 14 15 17 14 15 14 13 11 9 10 7 10 12 22 25 34 37 18 31 38 35 33 32 32 30
73 65 72 57 56 48 50 53 69 64 60 14 24 28 28 19 15 15 15 14 14 14 15 13 11 13 11 9 10 8 9 11 14 20 29 24 27 21 28 30 30 32 31 33 31
73 64 57 51 68 62 62 64 64 96 16 23 31 29 24 22 17 17 19 19 17 23 21 15 15 12 14 14 11 10 14 21 27 26 31 19 24 21 14 22 25 31 31 33 31
70 65 64 48 55 70 62 50 83 22 30 30 31 26 26 19 21 16 17 16 16 14 14 16 18 13 12 15 12 13 15 25 31 27 25 16 24 18 14 17 21 23 29 33 32
57 52 43 52 63 70 61 97 60 47 45 39 28 28 16 18 21 21 20 17 14 16 21 18 18 11 10 11 12 13 15 14 20 19 21 17 18 17 19 18 22 26 33 37 34
41 52 40 59 68 61 51 75 56 52 49 38 42 40 39 34 35 24 21 25 20 15 16 18 24 15 12 13 11 13 10 21 22 28 25 17 19 19 21 22 22 30 37 37 33
44 38 48 58 66 38 94 65 60 52 48 51 43 40 37 51 43 38 23 40 38 33 23 18 24 22 17 19 14 14 17 16 18 22 26 21 16 14 16 21 27 29 38 37 35
46 78 43 56 62 76 91 68 51 47 44 54 56 54 53 48 48 43 40 48 43 41 34 24 27 31 22 14 12 12 16 17 26 26 21 20 16 17 12 16 24 28 36 34 34
57 66 37 42 92 90 56 50 43 43 52 60 62 64 52 56 57 40 47 44 42 44 60 48 38 40 29 20 18 21 18 16 19 21 22 29 20 16 20 17 20 31 33 33 37
56 88 50 41 46 50 39 42 40 41 54 40 71 52 49 51 57 57 52 47 40 42 53 53 46 39 36 22 18 25 20 18 23 38 31 20 15 14 24 24 27 33 34 37 38
66 76 54 83 73 42 32 32 34 47 40 34 73 56 63 61 50 49 49 40 35 43 41 49 63 43 34 25 20 19 20 19 22 24 34 26 17 12 15 25 31 36 37 39 37
85 79 47 46 38 38 43 48 34 33 34 27 32 39 32 54 55 61 42 40 45 39 43 42 59 53 60 35 27 26 18 18 18 20 21 21 21 13 14 25 36 39 40 40 37
62 67 70 56 44 50 47 35 38 36 34 28 34 33 29 27 30 36 39 39 41 48 48 48 49 67 64 35 31 48 31 19 18 16 18 25 20 16 21 32 35 38 42 40 39
Wind_Speed
25 25 24 24 24 23 22 22 22 22 21 21 20 19 19 18 23 10 10 4 2 2 5 6 5 5 7 6 5 4 8 10 12 12 11 13 14 6 3 11 5 2 14 19 20
23 24 25 24 24 23 24 24 23 23 22 20 20 19 18 18 13 11 4 6 6 6 8 7 7 5 8 6 6 9 9 11 4 3 11 15 14 11 10 14 11 15 18 19 18
24 25 25 25 25 25 24 23 23 23 22 20 19 18 17 18 8 2 9 8 8 8 7 6 4 5 12 7 9 7 12 6 6 4 13 13 11 5 14 10 8 18 19 17 16
24 24 25 25 25 26 26 24 24 23 21 19 17 17 17 7 5 5 10 3 4 5 7 5 7 9 10 12 9 9 5 5 6 6 12 17 14 12 3 9 11 14 15 15 14
24 25 26 26 27 26 26 25 26 24 21 18 15 13 9 7 7 6 5 2 5 4 7 9 11 11 13 8 9 14 6 3 6 8 9 13 11 12 13 12 12 12 13 13 11
25 26 26 27 29 28 28 27 26 25 22 16 10 9 6 9 3 2 6 3 5 5 4 7 5 6 8 9 14 7 7 10 11 13 16 19 15 7 8 12 14 13 13 11 10
25 26 27 28 29 29 30 29 26 24 18 7 6 6 8 11 2 5 5 4 2 4 4 3 5 9 1 7 6 11 10 10 13 16 9 19 12 9 13 14 15 13 11 10 9
26 27 27 29 30 30 30 27 24 17 5 5 7 4 8 2 6 9 7 8 7 6 6 5 4 7 9 1 7 14 13 14 13 15 12 9 15 13 13 15 15 14 11 10 9
27 28 28 28 30 30 29 25 16 4 6 9 6 4 7 2 5 1 8 7 6 4 5 4 5 9 8 13 13 15 15 20 12 13 10 15 15 15 14 14 15 13 13 11 10
29 29 30 29 30 31 30 19 3 4 6 5 3 6 7 1 1 2 4 7 5 4 7 8 7 10 13 16 19 16 21 18 14 15 14 14 10 18 16 15 14 14 13 12 11
31 30 32 30 30 30 17 4 5 7 6 8 0 6 4 6 4 7 7 10 8 7 11 10 12 17 18 19 19 12 18 19 18 12 16 17 14 19 17 16 15 14 14 12 11
32 32 32 31 29 24 8 5 6 6 11 11 17 20 14 6 5 9 8 13 11 15 12 9 17 16 9 15 17 17 16 20 11 13 13 13 16 17 17 16 15 15 14 14 12
32 33 33 30 24 5 8 8 7 2 7 4 5 8 6 12 9 10 14 14 12 15 14 19 4 3 16 16 20 22 20 19 17 10 1 13 10 15 15 15 15 14 14 14 14
31 32 30 26 5 6 3 7 9 4 6 4 4 2 6 5 8 16 14 10 7 13 13 13 17 11 9 22 19 24 22 14 14 18 13 16 10 19 20 19 19 18 16 15 15
31 32 25 11 7 3 8 10 6 5 4 4 5 4 4 8 2 11 9 11 14 11 8 7 10 17 22 19 18 19 19 18 18 19 11 16 9 18 24 22 24 22 21 19 16
33 30 20 2 3 6 12 13 5 4 6 3 3 1 5 10 3 5 11 7 7 14 14 16 2 9 16 18 11 12 14 17 15 15 16 22 21 23 24 28 24 24 23 21 20
34 24 8 6 9 15 10 5 4 4 3 4 5 5 8 6 9 8 12 19 13 12 16 17 19 16 10 11 17 17 18 12 14 15 21 24 23 19 25 24 28 30 28 25 22
34 13 5 8 10 9 5 5 5 3 5 7 7 15 7 3 8 13 12 15 20 16 12 11 13 21 18 23 15 24 23 15 22 21 22 20 25 23 27 16 23 25 24 24 24
24 4 8 13 12 7 6 2 4 6 9 12 15 9 10 4 6 4 16 17 16 18 14 8 11 3 13 18 20 19 24 27 23 22 18 15 19 12 8 13 20 24 25 26 24
8 4 11 20 10 6 3 1 1 9 14 8 5 4 7 5 7 5 10 8 13 17 19 13 16 11 8 14 22 26 22 22 17 21 25 22 29 18 23 16 18 25 29 29 27
5 4 13 20 6 1 2 3 4 11 13 7 6 9 8 7 8 8 6 11 13 10 13 21 17 13 11 17 20 16 19 18 20 18 19 20 22 19 19 22 23 27 27 31 31
6 3 13 14 5 4 4 5 7 9 9 6 7 10 8 9 10 7 5 10 18 14 8 11 10 17 21 15 15 22 25 25 15 26 20 18 15 5 14 23 25 27 29 31 29
6 5 8 10 5 6 6 2 6 11 10 8 9 7 10 8 8 9 7 8 21 15 14 10 9 16 16 20 16 16 20 22 25 19 22 18 19 6 3 11 18 22 24 25 26
5 5 5 7 6 6 7 5 7 5 3 9 6 3 12 7 3 9 12 7 21 12 13 10 10 14 16 16 15 19 21 23 21 17 21 21 21 15 9 13 16 21 25 27 28
5 4 4 5 5 8 7 5 8 7 6 7 3 10 10 7 15 11 7 20 10 6 12 10 10 15 17 22 21 16 20 23 23 28 24 25 27 20 14 15 19 19 22 26 29
3 4 3 5 7 7 4 5 6 8 8 9 11 13 12 13 15 21 17 14 12 6 14 11 7 15 18 19 21 23 23 20 26 28 26 29 25 15 15 8 16 21 25 28 30
1 1 4 3 6 6 4 6 10 11 5 6 12 15 16 15 15 19 20 20 21 22 17 11 7 9 12 15 14 22 26 26 25 23 24 25 23 21 11 15 18 21 21 26 30
Wind_Direction
358 355 354 353 351 347 345 344 340 334 330 325 324 323 322 324 309 258 256 348 341 140 278 274 234 243 232 195 209 267 232 239 220 225 134 161 149 79 114 126 72 104 111 116 133
354 351 347 346 343 342 340 339 336 332 327 322 320 319 321 323 299 264 340 301 245 298 257 252 241 256 223 205 188 232 238 223 17 178 165 173 163 138 146 132 106 106 114 131 143
349 348 346 342 339 337 334 331 328 326 323 320 318 318 320 311 269 105 6 297 215 238 264 267 240 247 244 214 188 180 254 130 164 182 156 144 118 163 147 132 143 137 134 142 149
348 348 345 342 338 334 329 327 325 322 317 315 314 315 318 281 302 74 352 63 174 239 251 236 222 217 241 216 190 220 221 273 143 175 160 163 131 89 357 102 116 126 130 140 149
347 348 345 342 338 332 327 323 320 318 313 306 303 311 299 242 258 47 353 151 222 229 235 238 233 229 233 230 196 222 155 147 156 151 138 138 120 110 106 120 127 131 136 134 136
347 347 344 341 336 332 326 322 319 316 309 293 277 294 262 258 59 24 347 255 255 239 216 228 278 270 273 243 224 187 162 136 153 145 144 131 126 152 131 135 132 138 133 131 134
347 344 343 339 334 330 325 320 316 314 308 277 215 231 249 259 346 288 304 257 259 266 252 224 267 247 235 221 160 151 152 151 170 160 152 139 128 118 144 147 139 138 132 124 120
346 345 341 338 333 328 322 317 316 309 331 157 178 223 263 176 307 267 244 236 238 243 265 288 257 268 248 22 185 187 186 191 172 179 164 240 160 149 154 155 149 144 137 132 117
346 344 341 336 330 327 323 315 312 329 129 149 186 258 268 163 239 321 225 224 200 214 233 276 243 242 195 214 200 202 208 213 157 199 161 221 122 156 167 164 155 152 148 140 130
345 342 339 334 331 328 323 307 170 181 172 219 247 256 233 132 327 284 199 232 205 193 199 217 228 229 220 213 217 204 228 196 192 182 197 192 155 158 172 169 166 157 152 150 141
343 341 338 333 330 327 324 237 224 191 223 252 17 293 278 334 246 200 180 192 202 223 215 205 227 221 221 226 246 274 211 206 204 161 188 192 159 168 171 172 172 169 162 156 144
343 339 337 332 329 324 301 56 38 335 297 245 250 257 266 311 285 212 186 194 203 222 206 208 230 239 254 239 234 239 238 218 149 180 201 186 170 168 178 181 179 175 170 162 153
341 338 336 328 323 308 46 50 340 268 265 264 230 262 232 205 228 227 200 205 211 220 213 236 214 273 237 232 228 231 233 228 184 167 167 168 165 182 186 189 187 189 179 172 171
339 338 335 329 282 347 97 352 338 198 273 150 199 175 177 208 224 222 213 202 210 226 226 250 245 224 232 237 230 230 224 255 213 188 197 203 230 198 191 199 198 191 189 185 178
340 337 338 358 328 332 351 329 332 225 304 72 115 98 157 215 12 181 195 209 228 201 203 204 215 221 232 236 232 248 237 215 233 212 166 188 211 233 187 203 200 195 194 187 182
341 341 334 318 287 350 324 311 222 233 237 92 91 193 196 221 223 129 200 229 263 240 226 263 194 262 259 230 243 244 237 219 213 217 221 210 215 218 192 207 193 197 195 188 182
341 342 352 341 336 320 311 249 217 209 36 41 356 349 311 261 223 218 189 203 213 211 230 231 239 233 234 233 218 220 210 193 207 204 226 212 210 232 205 200 201 198 190 186 181
338 334 21 23 332 323 278 215 228 28 353 357 323 307 263 262 228 224 228 224 219 231 273 232 228 215 214 230 213 209 216 216 215 213 229 228 218 221 237 188 206 201 188 182 180
331 338 7 353 338 307 257 222 7 8 345 327 312 280 262 256 282 249 234 242 236 215 232 229 240 235 228 212 226 208 223 223 232 235 239 206 226 209 214 237 183 194 178 184 184
329 304 18 342 331 277 247 86 67 30 335 317 289 347 297 340 303 241 230 26 268 241 234 256 263 237 240 224 225 236 218 223 236 239 235 229 228 218 197 212 192 188 185 185 184
332 306 4 341 285 9 70 30 355 339 351 324 325 304 304 321 319 283 286 71 358 322 297 242 245 257 228 213 219 212 234 224 233 227 235 235 234 224 221 203 198 194 187 187 184
328 14 356 329 48 26 35 357 339 341 356 326 303 323 321 318 294 284 309 21 0 344 303 268 238 237 240 250 236 233 215 221 219 223 240 256 247 46 230 200 205 197 186 190 185
0 327 12 353 50 29 344 345 352 358 12 8 353 358 350 288 296 267 326 36 7 352 354 347 234 243 241 241 224 237 234 227 220 240 244 233 238 159 245 228 197 199 190 186 181
346 348 20 32 33 6 353 339 346 29 15 342 6 15 338 299 200 295 306 336 339 350 335 301 257 254 238 242 222 217 234 229 231 228 240 246 250 209 210 211 194 196 186 180 183
5 40 4 354 10 354 351 326 331 0 337 332 192 22 352 297 314 272 331 321 298 356 359 6 280 273 276 276 273 254 228 230 230 235 229 239 247 236 216 212 199 189 174 177 185
6 341 332 308 311 334 354 355 357 350 318 313 307 331 307 287 284 294 306 306 295 309 341 336 283 311 283 262 254 257 252 248 227 235 238 242 247 241 238 179 182 186 177 181 187
115 187 279 332 308 311 335 326 324 319 285 325 327 312 304 305 320 302 293 278 271 279 288 279 280 314 273 268 263 242 234 242 242 245 242 237 239 240 200 199 194 180 190 190 185